[[{"header":{"parameterUnit":"m.s-1","parameterCategory":1,"la1":30.2991,"la2":30.254,"lo1":-89.0895,"lo2":-89.0444,"dy":0.0017,"dx":0.0017,"nx":28,"ny":28,"refTime":"2023-10-25T03:00:00:Z","depth":0,"parameterNumber":2,"parameterNumberName":"U-component_of_WINDS"},"data":[0,0,0,0,0,0,0,0,0,0,0,0,0,0,0,0,0,0,0,0,0,0,0,0,0,0,0,0,0,0,0,0,0,0,0,0,0,0,0,0,0,0,0,0,0,0,0,0,0,0,0,0,0,0,0,0,0,0,-6.4324,-6.4325,0,-6.4375,-6.4375,-6.4376,-6.4324,-6.4322,-6.432,-6.4318,-6.4368,-6.4371,-6.4374,0,0,0,0,0,0,0,0,0,0,0,0,0,-6.4184,-6.4187,-6.4324,-6.4325,-6.4325,-6.4375,-6.4375,-6.4376,-6.4324,-6.4322,-6.4319,-6.4317,-6.4367,-6.4371,-6.4374,0,0,0,0,0,0,0,0,0,0,0,0,0,-6.4241,-6.4188,-6.4324,-6.4306,-6.4304,-6.4375,-6.4375,-6.4376,-6.4325,-6.4322,-6.4319,-6.4316,-6.4366,-6.437,-6.4375,-6.4465,0,0,-6.439,-6.4392,0,0,0,0,0,0,0,0,-6.4238,-6.4246,-6.4308,-6.4307,-6.4306,-6.434,-6.4344,-6.4406,-6.4326,-6.4317,-6.4318,-6.4314,-6.4361,-6.4366,-6.4382,-6.4467,-6.447,-6.439,-6.4393,-6.4395,-6.4396,0,0,0,0,0,0,0,-6.4234,-6.4243,-6.4344,-6.4309,-6.4308,-6.4295,-6.43,-6.4356,-6.4355,-6.4318,-6.4314,-6.4321,-6.436,-6.4377,-6.4383,-6.447,-6.439,-6.4394,-6.4397,-6.4399,-6.4636,-6.4639,0,0,0,0,0,0,-6.4232,-6.424,-6.4342,-6.4346,-6.4264,-6.43,-6.4305,-6.4332,-6.4354,-6.4355,-6.4323,-6.4318,-6.4371,-6.4377,-6.4384,-6.4492,-6.4395,-6.4399,-6.4402,-6.4632,-6.4636,-6.464,0,0,0,0,0,0,-6.4229,-6.4241,-6.434,-6.4292,-6.4304,-6.4306,-6.4336,-6.4335,-6.4352,-6.4359,-6.4358,-6.4341,-6.4369,-6.4377,-6.4446,-6.4493,-6.4402,-6.4406,-6.4628,-6.4633,-6.4638,-6.4708,0,0,0,0,0,0,-6.4225,-6.4241,-6.4274,-6.4293,-6.4307,-6.4401,-6.4339,-6.4338,-6.4361,-6.4355,-6.4376,-6.4376,-6.4367,-6.4439,-6.4451,-6.4498,-6.441,-6.4624,-6.4631,-6.4637,-6.4702,-6.4715,-6.4727,0,0,0,0,0,-6.422,-6.4291,-6.4276,-6.4289,-6.4349,-6.4404,-6.4411,-6.44,-6.4365,-6.4399,-6.4404,-6.4375,-6.4487,-6.4447,-6.4459,-6.4509,-6.4621,-6.4629,-6.4636,-6.4696,-6.4712,-6.4726,0,0,0,0,0,0,-6.4275,-6.4293,-6.4277,-6.4355,-6.4379,-6.4395,-6.4437,-6.4417,-6.445,-6.4443,-6.4427,-6.4432,-6.4505,-6.4514,-6.4469,-6.4599,-6.4548,-6.4559,-6.459,-6.4605,-6.4617,-6.4612,-6.4414,0,0,0,0,0,-6.4297,-6.434,-6.4353,-6.4422,-6.4435,-6.4435,-6.4458,-6.4448,-6.4471,-6.448,-6.449,-6.4513,-6.4554,-6.458,-6.4618,-6.4704,-6.4709,-6.4745,-6.4758,-6.4768,-6.4776,-6.4824,-6.4841,-6.4665,-6.4665,-6.4665,0,0,-6.4341,-6.4356,-6.4384,-6.4433,-6.445,-6.4496,-6.4443,-6.4492,-6.4526,-6.4487,-6.4553,-6.4562,-6.4587,-6.4666,-6.4701,-6.4675,-6.4827,-6.4777,-6.4786,-6.4788,-6.4834,-6.485,-6.4865,-6.467,-6.4669,-6.4669,0,0,-6.4444,-6.446,-6.4519,-6.4539,-6.4566,-6.4566,-6.4581,-6.4602,-6.4606,-6.4673,-6.4645,-6.4686,-6.4756,-6.4776,-6.4795,-6.4913,-6.4888,-6.4926,-6.4989,-6.5036,-6.505,-6.5062,-6.5104,-6.5119,-6.4935,-6.4935,-6.4935,0,-6.4495,-6.4562,-6.4552,-6.4605,-6.4628,-6.4599,-6.4659,-6.4678,-6.4716,-6.4733,-6.4705,-6.4794,-6.4809,-6.4893,-6.4922,-6.4939,-6.4955,-6.4921,-6.5049,-6.5061,-6.5072,-6.5112,-6.5128,-6.4939,-6.4939,-6.4938,-6.4938,0,-6.4624,-6.4672,-6.4717,-6.4756,-6.4785,-6.4841,-6.4841,-6.4871,-6.4861,-6.4865,-6.4934,-6.4952,-6.4994,-6.5014,-6.5002,-6.5097,-6.508,-6.5052,-6.4999,-6.5094,-6.5131,-6.5146,-6.4945,-6.4944,-6.4942,-6.4941,0,0,-6.4757,-6.4795,-6.4811,-6.483,-6.486,-6.4897,-6.4954,-6.4997,-6.5023,-6.5053,-6.51,-6.5163,-6.5137,-6.5159,-6.5151,-6.5193,-6.5286,-6.5159,-6.5159,-6.5181,-6.5392,-6.5412,-6.543,-6.5272,-6.5275,-6.5277,-6.539,0,-6.4861,-6.4959,-6.4954,-6.5047,-6.5092,-6.5067,-6.5117,-6.5142,-6.5148,-6.5188,-6.5196,-6.524,-6.5203,-6.5217,-6.5258,-6.5266,-6.5328,-6.5258,-6.5315,-6.5317,-6.5306,-6.5449,-6.5469,-6.5574,-6.5404,-6.5406,-6.5408,0,-6.4993,-6.5029,-6.5126,-6.5154,-6.5172,-6.5217,-6.5257,-6.5296,-6.5325,-6.5327,-6.5355,-6.5341,-6.54,-6.535,-6.5431,-6.5384,-6.5408,-6.5417,-6.5421,-6.5423,-6.5366,-6.5454,-6.5608,-6.5623,-6.5431,-6.5429,-6.5428,0,-6.508,-6.5153,-6.5221,-6.5238,-6.5271,-6.5304,-6.5319,-6.5345,-6.5373,-6.5409,-6.5426,-6.5469,-6.5491,-6.5525,-6.5524,-6.5487,-6.5607,-6.5556,-6.561,-6.561,-6.5633,-6.5631,-6.5791,-6.5652,-6.5652,-6.5652,-6.5651,0,-6.5195,-6.5255,-6.5261,-6.5302,-6.537,-6.5366,-6.5433,-6.5446,-6.547,-6.5514,-6.5497,-6.5539,-6.5536,-6.5579,-6.5579,-6.5647,-6.5657,-6.5661,-6.566,-6.5661,-6.5661,-6.5674,-6.5666,-6.5656,-6.5655,-6.5654,-6.5654,0,-6.5301,-6.5307,-6.538,-6.5408,-6.5416,-6.5465,-6.5489,-6.5529,-6.5537,-6.5593,-6.5606,-6.5618,-6.5668,-6.5672,-6.5729,-6.5729,-6.5812,-6.5804,-6.5802,-6.58,-6.5853,-6.5847,-6.6025,-6.6048,-6.5897,-6.5898,-6.5899,0,-6.5372,-6.5418,-6.5452,-6.5481,-6.5499,-6.5546,-6.5575,-6.5574,-6.5604,-6.5644,-6.568,-6.5729,-6.5768,-6.585,-6.5863,-6.5908,-6.59,-6.596,-6.5906,-6.5907,-6.59,-6.5896,-6.5901,-6.5968,-6.597,-6.5972,-6.5973,0,-6.5498,-6.55,-6.5542,-6.5587,-6.5622,-6.5656,-6.5689,-6.5714,-6.5717,-6.5753,-6.5805,-6.5836,-6.5897,-6.5946,-6.5991,-6.6008,-6.5991,-6.5991,-6.6005,-6.6005,-6.6002,-6.6004,-6.5828,-6.5985,-6.5984,-6.5983,-6.5982,-6.5982,-6.5587,-6.5628,-6.566,-6.5708,-6.5733,-6.5765,-6.5805,-6.582,-6.5863,-6.5913,-6.5911,-6.5969,-6.6001,-6.606,-6.6081,-6.6126,-6.6106,-6.6127,-6.6132,-6.6137,-6.6142,-6.5998,-6.6135,-6.6134,-6.6134,-6.6134,-6.6134,0,-6.5711,-6.5731,-6.5776,-6.5824,-6.5863,-6.5847,-6.5884,-6.5917,-6.5968,-6.6,-6.604,-6.6101,-6.6151,-6.617,-6.6219,-6.6252,-6.6246,-6.6264,-6.626,-6.6265,-6.6158,-6.614,-6.6269,-6.6269,-6.6269,-6.6269,-6.6269,-6.6269,-6.578,-6.5848,-6.5855,-6.5938,-6.5958,-6.6015,-6.6037,-6.6067,-6.6093,-6.6163,-6.6204,-6.6218,-6.6245,-6.6296,-6.6341,-6.6346,-6.6364,-6.6386,-6.6387,-6.6286,-6.6272,-6.6259,-6.6242,-6.639,-6.639,-6.649,-6.6491,-6.6492]},{"header":{"parameterUnit":"m.s-1","parameterCategory":1,"la1":30.2991,"la2":30.254,"lo1":-89.0895,"lo2":-89.0444,"dy":0.0017,"dx":0.0017,"nx":28,"ny":28,"refTime":"2023-10-25T03:00:00:Z","depth":0,"parameterNumber":3,"parameterNumberName":"V-component_of_WINDS"},"data":[0,0,0,0,0,0,0,0,0,0,0,0,0,0,0,0,0,0,0,0,0,0,0,0,0,0,0,0,0,0,0,0,0,0,0,0,0,0,0,0,0,0,0,0,0,0,0,0,0,0,0,0,0,0,0,0,0,0,2.3037,2.3038,0,2.3064,2.3064,2.3064,2.3126,2.3127,2.3128,2.3129,2.3151,2.315,2.3149,0,0,0,0,0,0,0,0,0,0,0,0,0,2.3036,2.3036,2.3037,2.3038,2.3038,2.3064,2.3064,2.3064,2.3125,2.3127,2.3128,2.313,2.3151,2.315,2.3149,0,0,0,0,0,0,0,0,0,0,0,0,0,2.3047,2.3036,2.3037,2.3072,2.3075,2.3064,2.3064,2.3064,2.3125,2.3127,2.3129,2.3131,2.3151,2.315,2.3149,2.3105,0,0,2.3146,2.3146,0,0,0,0,0,0,0,0,2.3046,2.3047,2.3066,2.3069,2.3073,2.3094,2.3072,2.3078,2.3124,2.3106,2.3129,2.3132,2.313,2.3131,2.3131,2.3106,2.3107,2.3146,2.3146,2.3145,2.3145,0,0,0,0,0,0,0,2.3045,2.3046,2.3048,2.3067,2.3071,2.3085,2.3088,2.3073,2.3106,2.3108,2.3112,2.3115,2.3132,2.3132,2.3132,2.3107,2.3146,2.3145,2.3145,2.3145,2.3049,2.3047,0,0,0,0,0,0,2.304,2.3045,2.3047,2.3048,2.3064,2.3083,2.3087,2.3085,2.3107,2.3112,2.3113,2.3117,2.3133,2.3133,2.3133,2.3084,2.3145,2.3144,2.3144,2.3051,2.3048,2.3046,0,0,0,0,0,0,2.304,2.304,2.3046,2.3048,2.305,2.3081,2.3078,2.3084,2.3085,2.3111,2.3117,2.3107,2.3134,2.3134,2.3112,2.3086,2.3144,2.3143,2.3053,2.305,2.3047,2.2985,0,0,0,0,0,0,2.304,2.304,2.3024,2.3047,2.305,2.3025,2.3076,2.3083,2.3083,2.3089,2.3107,2.3112,2.3136,2.3113,2.3111,2.3086,2.3142,2.3056,2.3052,2.3048,2.299,2.298,2.2972,0,0,0,0,0,2.304,2.3003,2.3023,2.3022,2.3031,2.3024,2.3025,2.3055,2.3081,2.3065,2.3082,2.3111,2.3089,2.3111,2.3109,2.3082,2.3057,2.3053,2.3049,2.2993,2.2982,2.2973,0,0,0,0,0,0,2.2973,2.3007,2.3029,2.2999,2.3009,2.3034,2.3015,2.3041,2.3042,2.3047,2.3083,2.3086,2.3059,2.3068,2.3092,2.3042,2.3078,2.3073,2.3037,2.3026,2.3018,2.3016,2.3142,0,0,0,0,0,2.2956,2.2949,2.2978,2.2949,2.2953,2.2983,2.2981,2.3004,2.3014,2.3017,2.3033,2.304,2.3036,2.3031,2.3028,2.2991,2.2996,2.2972,2.2964,2.2956,2.2952,2.2935,2.2925,2.3032,2.3032,2.3032,0,0,2.2918,2.2936,2.2929,2.2936,2.2946,2.2938,2.2986,2.2974,2.2968,2.3015,2.2996,2.3008,2.3019,2.299,2.2978,2.2996,2.2923,2.2951,2.2945,2.2944,2.2929,2.2919,2.291,2.3029,2.3029,2.303,0,0,2.2846,2.2859,2.2837,2.2847,2.2862,2.2883,2.2877,2.29,2.291,2.2892,2.2928,2.292,2.2911,2.2918,2.292,2.2853,2.288,2.285,2.2805,2.2788,2.278,2.2773,2.275,2.2741,2.2845,2.2845,2.2845,0,2.2798,2.2788,2.2822,2.2809,2.2812,2.2857,2.2835,2.2842,2.2854,2.2854,2.2876,2.2866,2.2876,2.2851,2.2835,2.2834,2.283,2.2848,2.2779,2.2772,2.2765,2.2744,2.2735,2.2842,2.2842,2.2842,2.2843,0,2.2728,2.272,2.2701,2.2715,2.2715,2.2697,2.2728,2.2724,2.2747,2.2765,2.2747,2.2761,2.2762,2.2758,2.2778,2.2735,2.2747,2.2772,2.281,2.2751,2.2732,2.2724,2.2837,2.2838,2.2839,2.284,0,0,2.2614,2.2649,2.2642,2.2649,2.267,2.2664,2.2649,2.2653,2.2649,2.2656,2.2644,2.2636,2.2661,2.2663,2.2685,2.267,2.2618,2.2699,2.2699,2.2684,2.2573,2.2554,2.2544,2.2636,2.2635,2.2634,2.2572,0,2.2548,2.2526,2.2557,2.2527,2.2521,2.2565,2.2551,2.2562,2.2579,2.2575,2.2593,2.2588,2.262,2.2622,2.2609,2.2627,2.2596,2.2632,2.2625,2.2624,2.2622,2.2534,2.2513,2.2455,2.2565,2.2564,2.2563,0,2.2468,2.2474,2.2444,2.2469,2.2468,2.2455,2.2462,2.2458,2.2472,2.2485,2.2489,2.2516,2.2502,2.2539,2.252,2.2544,2.2543,2.2551,2.2549,2.255,2.259,2.2533,2.2436,2.2428,2.2551,2.2552,2.2553,0,2.239,2.2391,2.2374,2.2379,2.2406,2.2397,2.2408,2.2424,2.2424,2.2429,2.243,2.2433,2.2434,2.2435,2.2463,2.2486,2.2441,2.2479,2.2452,2.2451,2.244,2.2441,2.2343,2.2438,2.2438,2.2438,2.2438,0,2.2314,2.2294,2.234,2.2329,2.2308,2.2344,2.2323,2.2338,2.2351,2.2344,2.238,2.2372,2.2409,2.2404,2.2425,2.2408,2.2407,2.2418,2.2424,2.2415,2.2414,2.2415,2.242,2.2436,2.2436,2.2437,2.2437,0,2.2223,2.2253,2.2238,2.2266,2.2273,2.2257,2.2281,2.2272,2.2292,2.2282,2.2282,2.2312,2.2309,2.2337,2.2338,2.2352,2.2325,2.2337,2.2321,2.2325,2.2297,2.23,2.2198,2.2187,2.2287,2.2286,2.2285,0,2.2173,2.216,2.2188,2.2187,2.2197,2.2193,2.2195,2.223,2.223,2.2245,2.2235,2.2235,2.2238,2.2231,2.2252,2.2254,2.2267,2.2232,2.2268,2.226,2.2268,2.227,2.2269,2.2224,2.2223,2.2222,2.2221,0,2.2082,2.2098,2.21,2.2107,2.2109,2.2116,2.2125,2.2122,2.2159,2.2157,2.2156,2.2158,2.2162,2.2162,2.2168,2.2178,2.2206,2.2209,2.2203,2.2195,2.2187,2.2192,2.2302,2.2212,2.2213,2.2213,2.2214,2.2214,2.2011,2.2002,2.2021,2.2023,2.2034,2.2042,2.2036,2.2056,2.2056,2.2063,2.2082,2.2078,2.2093,2.2104,2.2112,2.2109,2.2126,2.2117,2.2115,2.2112,2.2108,2.2187,2.2109,2.211,2.211,2.211,2.211,0,2.1923,2.1938,2.1939,2.1952,2.1953,2.1981,2.1993,2.1992,2.1988,2.2,2.2003,2.2002,2.2003,2.2025,2.2028,2.2021,2.2034,2.2021,2.2022,2.2024,2.2091,2.2097,2.2011,2.2011,2.2011,2.2011,2.2011,2.2011,2.1878,2.1865,2.1883,2.1875,2.1889,2.1887,2.1892,2.1899,2.191,2.1908,2.1909,2.1925,2.1941,2.1946,2.1948,2.1954,2.1954,2.1937,2.1948,2.201,2.2019,2.2029,2.2034,2.1936,2.1936,2.1882,2.1881,2.1881]}]]